Home   Weather   St. George   Past weeks

Flag for USA Past Weather in St. George, Utah, USA — Yesterday and Last 2 Weeks

52 °F


Feels Like: 52 °F
Forecast: 53 / 80 °F
Wind: No wind

Location: Saint George

Current Time: Oct 26, 2016 at 7:40:09 AM

Latest Report: Oct 26, 2016 at 7:15 AM

Visibility: 10 mi

Pressure: 30.24 "Hg (27.33 "Hg at 842m altitude)

Humidity: 77%

Dew Point: 45 °F

Location of St. GeorgeLocation

Past Weather in St. George — Graph


St. George Temperature Yesterday

Maximum temperature yesterday: 73 °F (at 2:35 PM)
Minimum temperature yesterday: 54 °F (at 8:15 AM)
Average temperature yesterday: 63 °F

High & Low Weather Summary for the Past Weeks

High90 °F (Oct 15, 4:35 PM)88% (Oct 25, 1:35 AM)30.39 "Hg (Oct 25, 1:35 AM)
Low46 °F (Oct 21, 7:55 AM)13% (Oct 21, 3:35 PM)29.73 "Hg (Oct 17, 2:55 AM)
Average67 °F30%30.05 "Hg
* Reported Oct 11 6:15 AM — Oct 26 6:15 AM, St. George, Weather by CustomWeather, © 2016

Note: Actual official high and low records may vary slightly from our data, if they occured in-between our weather recording intervals... More about our weather records


St. George Weather History for the Previous 24 Hours

Scroll right to see more
Time TempWeatherWind HumidityBarometerVisibility
6:15 AM
Wed, Oct 26
54 °FClear.No wind72%30.24 "Hg10 mi
5:55 AM55 °FClear.No wind67%30.23 "Hg10 mi
5:35 AM55 °FClear.3 mph67%30.23 "Hg10 mi
5:15 AM55 °FClear.No wind67%30.22 "Hg10 mi
4:55 AM55 °FClear.6 mph72%30.22 "Hg10 mi
4:35 AM55 °FClear.5 mph72%30.22 "Hg10 mi
4:15 AM55 °FClear.5 mph72%30.22 "Hg10 mi
3:55 AM55 °FClear.6 mph72%30.22 "Hg10 mi
3:35 AM55 °FClear.3 mph72%30.22 "Hg10 mi
3:15 AM55 °FClear.No wind72%30.23 "Hg10 mi
2:55 AM55 °FClear.No wind72%30.22 "Hg10 mi
2:35 AM57 °FClear.No wind72%30.23 "Hg10 mi
2:15 AM57 °FClear.No wind72%30.22 "Hg10 mi
1:55 AM57 °FClear.No wind72%30.22 "Hg10 mi
1:35 AM59 °FClear.7 mph68%30.22 "Hg10 mi
1:15 AM59 °FClear.6 mph68%30.21 "Hg10 mi
12:55 AM59 °FClear.6 mph68%30.21 "Hg10 mi
12:35 AM59 °FClear.8 mph68%30.21 "Hg10 mi
11:55 PM
Tue, Oct 25
63 °FClear.No wind64%30.20 "Hg10 mi
11:35 PM61 °FClear.5 mph68%30.20 "Hg10 mi
10:55 PM61 °FClear.No wind72%30.19 "Hg10 mi
10:35 PM61 °FClear.No wind72%30.19 "Hg10 mi
10:15 PM63 °FClear.5 mph68%30.18 "Hg10 mi
9:55 PM64 °FClear.6 mph64%30.18 "Hg10 mi
9:35 PM64 °FClear.3 mph68%30.17 "Hg10 mi
9:15 PM64 °FClear.No wind64%30.17 "Hg10 mi
8:55 PM64 °FClear.3 mph64%30.17 "Hg10 mi
8:35 PM64 °FClear.3 mph68%30.17 "Hg10 mi
7:55 PM68 °FClear.7 mph56%30.16 "Hg10 mi
7:35 PM68 °FClear.8 mph56%30.15 "Hg10 mi
7:15 PM70 °FClear.8 mph57%30.15 "Hg10 mi
6:55 PM70 °FClear.8 mph57%30.14 "Hg10 mi
6:35 PM72 °FSunny.7 mph47%30.14 "Hg10 mi
6:15 PM73 °FSunny.6 mph41%30.14 "Hg10 mi
5:55 PM73 °FSunny.7 mph41%30.13 "Hg10 mi
5:35 PM73 °FSunny.7 mph41%30.14 "Hg10 mi
5:15 PM73 °FSunny.5 mph38%30.14 "Hg10 mi
4:55 PM73 °FSunny.6 mph41%30.13 "Hg10 mi
4:35 PM73 °FSunny.No wind41%30.13 "Hg10 mi
4:15 PM73 °FSunny.5 mph41%30.13 "Hg10 mi
3:55 PM73 °FSunny.No wind41%30.13 "Hg10 mi
3:35 PM73 °FSunny.5 mph44%30.13 "Hg10 mi
3:15 PM73 °FSunny.3 mph47%30.13 "Hg10 mi
2:55 PM73 °FSunny.5 mph50%30.14 "Hg10 mi
2:35 PM73 °FSunny.3 mph50%30.15 "Hg10 mi
2:15 PM72 °FSunny.3 mph53%30.15 "Hg6 mi
1:55 PM72 °FSunny.6 mph53%30.15 "Hg10 mi
1:35 PM72 °FSunny.5 mph53%30.16 "Hg10 mi
1:15 PM70 °FSunny.3 mph57%30.18 "Hg10 mi
12:55 PM68 °FSunny.5 mph60%30.19 "Hg10 mi
12:35 PM66 °FSunny.3 mph64%30.19 "Hg10 mi
12:15 PM66 °FSunny.5 mph64%30.20 "Hg10 mi
11:55 AM64 °FSunny.5 mph68%30.20 "Hg10 mi
11:35 AM63 °FSunny.5 mph73%30.20 "Hg10 mi
11:15 AM63 °FSunny.3 mph73%30.20 "Hg10 mi
10:55 AM61 °FSunny.No wind77%30.21 "Hg10 mi
10:35 AM59 °FSunny.No wind82%30.22 "Hg10 mi
10:15 AM59 °FSunny.3 mph82%30.21 "Hg10 mi
9:55 AM59 °FSunny.No wind82%30.21 "Hg10 mi
9:35 AM57 °FSunny.5 mph88%30.20 "Hg10 mi
9:15 AM55 °FSunny.3 mph88%30.20 "Hg7 mi
8:55 AM55 °FSunny.3 mph88%30.20 "Hg9 mi
8:35 AM55 °FSunny.No wind82%30.19 "Hg4 mi
8:15 AM54 °FSunny.3 mph88%30.18 "Hg5 mi
7:55 AM55 °FPartly sunny.No wind82%30.18 "Hg1 mi
7:35 AM55 °FPassing clouds.No wind88%30.18 "Hg5 mi
7:15 AM55 °FPassing clouds.No wind88%30.17 "Hg7 mi
Weather by CustomWeather, © 2016

See weather overviewHow to use our weather pages